• In Hungary
  • List of Countries
  • For 7 days
  • Water Temperature
  • Satellite Maps
  • Weather Map
  • News
  • Weather Widgets
  • user-avatar
    Login

    Hourly Weather Bochurino

    Today, 24 September, Monday

    Time Temperature Precipitation Wind Pressure Humidity
    00:00 +7°C° 0 mm 3 mps 739 mmHg 92%
    01:00 +7°C° 0 mm 3 mps 739 mmHg 94%
    02:00 +6°C° 0 mm 2 mps 739 mmHg 97%
    03:00 +6°C° 0 mm 2 mps 739 mmHg 97%
    04:00 +6°C° 0 mm 2 mps 739 mmHg 97%
    05:00 +6°C° 0 mm 2 mps 739 mmHg 97%
    06:00 +6°C° 0 mm 2 mps 739 mmHg 95%
    07:00 +7°C° 0 mm 2 mps 739 mmHg 92%
    08:00 +8°C° 0 mm 2 mps 739 mmHg 88%
    09:00 +9°C° 0 mm 2 mps 739 mmHg 82%
    10:00 +10°C° 0 mm 2 mps 739 mmHg 77%
    11:00 +12°C° 0 mm 2 mps 739 mmHg 71%
    12:00 +12°C° 0.3 mm 2 mps 738 mmHg 75%
    13:00 +12°C° 0.3 mm 2 mps 738 mmHg 79%
    14:00 +10°C° 0.3 mm 2 mps 738 mmHg 83%
    15:00 +9°C° 0.8 mm 2 mps 737 mmHg 87%
    16:00 +9°C° 0.8 mm 2 mps 737 mmHg 90%
    17:00 +8°C° 0.8 mm 2 mps 736 mmHg 94%
    18:00 +8°C° 1 mm 2 mps 735 mmHg 94%
    19:00 +8°C° 1 mm 3 mps 734 mmHg 94%
    20:00 +8°C° 1 mm 3 mps 734 mmHg 94%
    21:00 +7°C° 1.4 mm 3 mps 733 mmHg 94%
    22:00 +6°C° 1.4 mm 4 mps 732 mmHg 94%
    23:00 +6°C° 1.4 mm 4 mps 732 mmHg 95%

    Tomorrow, 25 September, Tuesday

    Time Temperature Precipitation Wind Pressure Humidity
    00:00 +6°C° 1.6 mm 4 mps 731 mmHg 94%
    01:00 +6°C° 1.6 mm 4 mps 731 mmHg 94%
    02:00 +6°C° 1.6 mm 5 mps 731 mmHg 94%
    03:00 +6°C° 1.6 mm 5 mps 731 mmHg 94%
    04:00 +6°C° 1.6 mm 5 mps 731 mmHg 93%
    05:00 +5°C° 1.6 mm 6 mps 731 mmHg 92%
    06:00 +5°C° 0.9 mm 6 mps 732 mmHg 91%
    07:00 +5°C° 0.9 mm 6 mps 732 mmHg 90%
    08:00 +5°C° 0.9 mm 7 mps 733 mmHg 89%
    09:00 +5°C° 0.5 mm 7 mps 734 mmHg 87%
    10:00 +5°C° 0.5 mm 7 mps 734 mmHg 85%
    11:00 +5°C° 0.5 mm 7 mps 735 mmHg 83%
    12:00 +6°C° 0.4 mm 7 mps 736 mmHg 80%
    13:00 +6°C° 0.4 mm 7 mps 737 mmHg 77%
    14:00 +7°C° 0.4 mm 6 mps 738 mmHg 74%
    15:00 +7°C° 0.1 mm 6 mps 739 mmHg 75%
    16:00 +5°C° 0.1 mm 6 mps 740 mmHg 76%
    17:00 +6°C° 0.1 mm 5 mps 740 mmHg 76%
    18:00 +6°C° 0 mm 5 mps 741 mmHg 76%
    19:00 +5°C° 0 mm 5 mps 742 mmHg 76%
    20:00 +5°C° 0 mm 5 mps 743 mmHg 76%
    21:00 +3°C° 0 mm 5 mps 744 mmHg 75%
    22:00 +2°C° 0 mm 5 mps 745 mmHg 74%
    23:00 +2°C° 0 mm 5 mps 746 mmHg 73%

    Day after tomorrow, 26 September, Wednesday

    Time Temperature Precipitation Wind Pressure Humidity
    00:00 +1°C° 0 mm 4 mps 746 mmHg 74%
    01:00 +1°C° 0 mm 4 mps 747 mmHg 74%
    02:00 0°C° 0 mm 4 mps 748 mmHg 74%
    03:00 +1°C° 0 mm 3 mps 748 mmHg 76%
    04:00 0°C° 0 mm 3 mps 748 mmHg 78%
    05:00 0°C° 0 mm 3 mps 749 mmHg 80%
    06:00 +1°C° 0 mm 3 mps 749 mmHg 77%
    07:00 +2°C° 0 mm 3 mps 749 mmHg 74%
    08:00 +3°C° 0 mm 3 mps 750 mmHg 70%
    09:00 +5°C° 0 mm 4 mps 749 mmHg 68%
    10:00 +7°C° 0 mm 4 mps 749 mmHg 66%
    11:00 +8°C° 0 mm 4 mps 749 mmHg 64%
    12:00 +10°C° 0 mm 4 mps 748 mmHg 61%
    13:00 +10°C° 0 mm 5 mps 747 mmHg 58%
    14:00 +10°C° 0 mm 5 mps 747 mmHg 55%
    15:00 +9°C° 0 mm 5 mps 746 mmHg 58%
    16:00 +9°C° 0 mm 5 mps 745 mmHg 61%
    17:00 +8°C° 0 mm 5 mps 744 mmHg 64%
    18:00 +7°C° 0.7 mm 5 mps 743 mmHg 72%
    19:00 +7°C° 0.7 mm 6 mps 741 mmHg 79%
    20:00 +5°C° 0.7 mm 7 mps 740 mmHg 86%
    21:00 +5°C° 1.5 mm 7 mps 739 mmHg 87%
    22:00 +5°C° 1.5 mm 7 mps 738 mmHg 88%
    23:00 +5°C° 1.5 mm 7 mps 736 mmHg 89%

    27 September, Thursday

    Time Temperature Precipitation Wind Pressure Humidity
    00:00 +7°C° 0.9 mm 6 mps 736 mmHg 89%
    01:00 +7°C° 0.9 mm 6 mps 736 mmHg 90%
    02:00 +7°C° 0.9 mm 5 mps 735 mmHg 90%
    03:00 +6°C° 0.2 mm 5 mps 735 mmHg 89%
    04:00 +6°C° 0.2 mm 4 mps 735 mmHg 89%
    05:00 +5°C° 0.2 mm 4 mps 735 mmHg 88%
    06:00 +5°C° 0 mm 4 mps 736 mmHg 85%
    07:00 +6°C° 0 mm 5 mps 736 mmHg 83%
    08:00 +6°C° 0 mm 5 mps 736 mmHg 80%
    09:00 +7°C° 0 mm 6 mps 736 mmHg 75%
    10:00 +8°C° 0 mm 6 mps 736 mmHg 69%
    11:00 +9°C° 0 mm 6 mps 736 mmHg 64%
    12:00 +9°C° 0.1 mm 6 mps 736 mmHg 62%
    13:00 +9°C° 0.1 mm 6 mps 736 mmHg 60%
    14:00 +9°C° 0.1 mm 6 mps 737 mmHg 58%
    15:00 +9°C° 0.1 mm 5 mps 737 mmHg 62%
    16:00 +8°C° 0.1 mm 4 mps 737 mmHg 67%
    17:00 +8°C° 0.1 mm 3 mps 737 mmHg 71%
    18:00 +7°C° 0 mm 3 mps 737 mmHg 74%
    19:00 +7°C° 0 mm 3 mps 737 mmHg 76%
    20:00 +5°C° 0 mm 3 mps 738 mmHg 78%
    21:00 +5°C° 0 mm 3 mps 738 mmHg 79%
    22:00 +5°C° 0 mm 3 mps 738 mmHg 81%
    23:00 +5°C° 0 mm 3 mps 738 mmHg 82%

    28 September, Friday

    Time Temperature Precipitation Wind Pressure Humidity
    00:00 +5°C° 0 mm 3 mps 738 mmHg 84%
    01:00 +5°C° 0 mm 3 mps 738 mmHg 85%
    02:00 +5°C° 0 mm 3 mps 737 mmHg 87%
    03:00 +5°C° 0.7 mm 3 mps 737 mmHg 90%
    04:00 +6°C° 0.7 mm 2 mps 737 mmHg 93%
    05:00 +6°C° 0.7 mm 2 mps 737 mmHg 95%
    06:00 +6°C° 0.2 mm 2 mps 736 mmHg 94%
    07:00 +5°C° 0.2 mm 3 mps 736 mmHg 92%
    08:00 +5°C° 0.2 mm 3 mps 736 mmHg 90%
    09:00 +7°C° 0 mm 3 mps 737 mmHg 86%
    10:00 +7°C° 0 mm 3 mps 737 mmHg 83%
    11:00 +6°C° 0 mm 4 mps 738 mmHg 79%
    12:00 +7°C° 0 mm 4 mps 738 mmHg 73%
    13:00 +7°C° 0 mm 4 mps 739 mmHg 67%
    14:00 +8°C° 0 mm 4 mps 739 mmHg 62%
    15:00 +7°C° 0 mm 4 mps 740 mmHg 64%
    16:00 +7°C° 0 mm 3 mps 740 mmHg 67%
    17:00 +5°C° 0 mm 3 mps 740 mmHg 70%
    18:00 +5°C° 0 mm 2 mps 741 mmHg 73%
    19:00 +4°C° 0 mm 2 mps 742 mmHg 76%
    20:00 +3°C° 0 mm 2 mps 742 mmHg 78%
    21:00 +2°C° 0 mm 2 mps 743 mmHg 78%
    22:00 +2°C° 0 mm 2 mps 743 mmHg 77%
    23:00 +2°C° 0 mm 2 mps 744 mmHg 76%

    29 September, Saturday

    Time Temperature Precipitation Wind Pressure Humidity
    00:00 +2°C° 0 mm 2 mps 744 mmHg 76%
    01:00 +2°C° 0 mm 2 mps 744 mmHg 76%
    02:00 +3°C° 0 mm 1 mps 745 mmHg 76%
    03:00 +3°C° 0 mm 1 mps 745 mmHg 78%
    04:00 +2°C° 0 mm 1 mps 745 mmHg 79%
    05:00 +2°C° 0 mm 1 mps 746 mmHg 80%
    06:00 +3°C° 0 mm 1 mps 746 mmHg 76%
    07:00 +4°C° 0 mm 1 mps 747 mmHg 73%
    08:00 +5°C° 0 mm 1 mps 747 mmHg 69%
    09:00 +6°C° 0 mm 1 mps 747 mmHg 63%
    10:00 +7°C° 0 mm 1 mps 748 mmHg 57%
    11:00 +8°C° 0 mm 2 mps 748 mmHg 51%
    12:00 +8°C° 0 mm 2 mps 748 mmHg 50%
    13:00 +8°C° 0 mm 2 mps 748 mmHg 48%
    14:00 +8°C° 0 mm 2 mps 748 mmHg 47%
    15:00 +7°C° 0 mm 2 mps 749 mmHg 53%
    16:00 +7°C° 0 mm 1 mps 749 mmHg 59%
    17:00 +6°C° 0 mm 1 mps 749 mmHg 66%
    18:00 +5°C° 0 mm 1 mps 749 mmHg 70%
    19:00 +4°C° 0 mm 1 mps 749 mmHg 75%
    20:00 +3°C° 0 mm 1 mps 750 mmHg 80%
    21:00 +2°C° 0 mm 2 mps 750 mmHg 82%
    22:00 +2°C° 0 mm 2 mps 750 mmHg 84%
    23:00 +2°C° 0 mm 2 mps 750 mmHg 86%
    Show more